CW3467 Weather Reports


time (UTC)temp
C
wind
direction
speed
KPH
gust
KPH
rain 1hr
cm
rain 24hr
cm
rain mn
cm
humidity
%
barometer
mb
20260504082004 15 273 1.6 6.4 0.00 0.23 0.15 90 1014.0
20260504081504 15 264 1.6 4.8 0.00 0.23 0.15 92 1014.1
20260504081004 14 252 1.6 4.8 0.00 0.23 0.15 92 1014.0
20260504080504 14 266 1.6 3.2 0.00 0.23 0.15 93 1014.0
20260504050504 11 211 0.0 1.6 0.15 0.23 0.15 100 1013.8
20260504050004 11 219 0.0 1.6 0.15 0.23 0.15 100 1013.7
20260504045504 11 208 0.0 1.6 0.15 0.23 0.15 100 1013.7
20260504045004 11 162 1.6 4.8 0.15 0.23 0.15 100 1013.8
20260504044525 11 152 1.6 4.8 0.15 0.23 0.15 100 1013.7
20260504044004 11 208 0.0 3.2 0.15 0.23 0.15 100 1014.0
20260504043504 11 233 0.0 3.2 0.15 0.23 0.15 100 1013.8
20260504043004 11 232 0.0 1.6 0.13 0.20 0.13 100 1013.9
20260504042504 11 231 0.0 3.2 0.10 0.18 0.10 100 1013.9
20260504042004 11 244 0.0 3.2 0.08 0.15 0.08 100 1014.2
20260504041504 11 335 0.0 4.8 0.08 0.15 0.08 100 1014.3
20260504041004 11 346 0.0 4.8 0.05 0.13 0.05 100 1014.5
20260504040525 11 288 0.0 3.2 0.00 0.08 0.03 100 1014.7
20260504040025 11 0 0.0 0.0 0.00 0.08 0.00 100 1014.3
20260504035504 11 0 0.0 0.0 0.00 0.08 0.00 100 1014.2
20260504035004 11 0 0.0 0.0 0.00 0.08 0.00 100 1014.3
20260504034525 11 0 0.0 0.0 0.00 0.08 0.00 100 1014.2
20260504034025 11 0 0.0 0.0 0.00 0.08 0.00 100 1014.3
20260504033504 11 233 0.0 1.6 0.00 0.08 0.00 100 1014.1
20260504033004 11 233 0.0 1.6 0.00 0.08 0.00 100 1014.0
20260504032504 11 0 0.0 0.0 0.00 0.08 0.00 100 1014.3
20260504032004 11 0 0.0 0.0 0.00 0.08 0.00 100 1014.2
20260504031504 11 0 0.0 0.0 0.00 0.08 0.00 100 1014.2
20260504031004 11 0 0.0 0.0 0.00 0.08 0.00 100 1014.1
20260504030504 11 0 0.0 0.0 0.00 0.08 0.00 100 1014.0
20260504030004 11 0 0.0 0.0 0.00 0.08 0.00 100 1014.2
20260504025504 11 0 0.0 0.0 0.00 0.08 0.00 100 1014.0
20260504025004 11 0 0.0 0.0 0.00 0.08 0.00 100 1014.0
20260504024504 11 235 0.0 1.6 0.00 0.08 0.00 100 1014.1
20260504024004 11 226 0.0 1.6 0.00 0.10 0.00 100 1013.9
20260504023504 11 227 0.0 1.6 0.00 0.10 0.00 100 1013.9
20260504023004 11 236 0.0 1.6 0.00 0.10 0.00 100 1013.9
20260504022504 11 232 0.0 1.6 0.00 0.10 0.00 100 1014.0
20260504022004 11 234 0.0 1.6 0.00 0.10 0.00 100 1014.0
20260504021504 11 0 0.0 0.0 0.00 0.10 0.00 100 1013.8
20260504021025 11 0 0.0 0.0 0.00 0.13 0.00 100 1013.8
20260504020504 11 208 0.0 1.6 0.00 0.13 0.00 100 1013.9
20260504020004 11 208 0.0 1.6 0.00 0.13 0.00 100 1013.9
20260504015504 11 0 0.0 0.0 0.00 0.13 0.00 100 1014.2
20260504015004 11 0 0.0 0.0 0.00 0.13 0.00 100 1013.9
20260504014504 11 0 0.0 0.0 0.00 0.15 0.00 100 1014.0
20260504014025 11 0 0.0 0.0 0.00 0.15 0.00 100 1014.0
20260504013525 11 0 0.0 0.0 0.00 0.18 0.00 97 1014.0
20260504013004 11 208 0.0 1.6 0.00 0.18 0.00 97 1014.3
20260504012504 11 196 0.0 1.6 0.00 0.18 0.00 97 1014.3
20260504012004 12 212 0.0 1.6 0.00 0.18 0.00 95 1014.2
20260504011504 12 236 0.0 1.6 0.00 0.20 0.00 95 1014.1
20260504011004 12 238 0.0 1.6 0.00 0.20 0.00 95 1014.2
20260504010504 12 232 0.0 1.6 0.00 0.23 0.00 95 1014.1
20260504010005 12 231 0.0 1.6 0.00 0.23 0.00 95 1014.2
20260504005505 11 231 0.0 1.6 0.00 0.25 0.00 96 1014.3
20260504005005 11 0 0.0 0.0 0.00 0.28 0.00 97 1014.5
20260504004526 11 0 0.0 0.0 0.00 0.28 0.00 97 1014.3
20260504004005 11 0 0.0 0.0 0.00 0.30 0.00 97 1014.2
20260504003505 11 0 0.0 0.0 0.00 0.30 0.00 97 1014.2
20260504003005 11 0 0.0 0.0 0.00 0.30 0.00 97 1014.2
20260504002526 11 0 0.0 0.0 0.00 0.33 0.00 97 1014.6
20260504002005 11 0 0.0 0.0 0.00 0.33 0.00 97 1014.5
20260504001505 11 0 0.0 0.0 0.00 0.36 0.00 97 1014.7
20260504001005 11 0 0.0 0.0 0.00 0.36 0.00 97 1014.5
20260504000505 11 0 0.0 0.0 0.00 0.38 0.00 97 1014.6
20260504000009 12 0 0.0 0.0 0.00 0.38 0.00 97 1014.8
20260503235526 12 0 0.0 0.0 0.00 0.38 0.38 97 1014.8
20260503235005 12 0 0.0 0.0 0.00 0.41 0.38 96 1014.9
20260503234505 12 0 0.0 0.0 0.00 0.41 0.38 96 1014.9
20260503234005 12 0 0.0 0.0 0.00 0.46 0.38 96 1015.0
20260503233505 12 0 0.0 0.0 0.00 0.48 0.38 96 1015.0
20260503233005 12 0 0.0 0.0 0.00 0.51 0.38 95 1015.1
20260503232505 12 0 0.0 0.0 0.00 0.56 0.38 95 1015.1
20260503232005 12 0 0.0 0.0 0.00 0.58 0.38 95 1015.2
20260503231505 12 193 0.0 1.6 0.00 0.58 0.38 94 1015.3
20260503231026 12 193 0.0 1.6 0.00 0.58 0.38 93 1015.3
20260503230505 12 207 0.0 1.6 0.00 0.58 0.38 93 1015.0
20260503230005 12 204 0.0 1.6 0.00 0.58 0.38 93 1015.4
20260503225526 12 187 0.0 1.6 0.00 0.58 0.38 92 1015.1
20260503225005 12 187 0.0 1.6 0.00 0.58 0.38 92 1015.3
20260503224505 12 205 0.0 1.6 0.00 0.58 0.38 93 1015.2
20260503224005 12 218 0.0 1.6 0.00 0.58 0.38 93 1015.3
20260503223504 12 219 0.0 1.6 0.00 0.58 0.38 93 1015.2
20260503223026 12 220 0.0 1.6 0.00 0.58 0.38 94 1015.2
20260503222504 12 0 0.0 0.0 0.00 0.58 0.38 95 1015.0
20260503222005 12 0 0.0 0.0 0.00 0.58 0.38 95 1015.1
20260503221505 12 0 0.0 0.0 0.00 0.58 0.38 95 1015.1
20260503221005 12 0 0.0 0.0 0.00 0.58 0.38 95 1015.0
20260503220505 12 232 0.0 1.6 0.00 0.58 0.38 95 1015.2
20260503220005 12 232 0.0 1.6 0.00 0.58 0.38 95 1015.2
20260503215505 12 0 0.0 0.0 0.00 0.58 0.38 95 1015.1
20260503215004 12 210 0.0 1.6 0.00 0.58 0.38 95 1015.1
20260503214504 12 210 0.0 1.6 0.00 0.58 0.38 94 1015.3
20260503214026 12 209 0.0 1.6 0.00 0.58 0.38 94 1015.3
20260503213505 12 195 0.0 1.6 0.00 0.58 0.38 94 1015.4
20260503213025 12 192 0.0 1.6 0.00 0.58 0.38 94 1015.1
20260503212504 12 187 0.0 1.6 0.00 0.58 0.38 93 1015.2
20260503212005 12 192 0.0 1.6 0.00 0.58 0.38 93 1015.1
20260503211525 12 192 0.0 1.6 0.00 0.58 0.38 93 1015.0
20260503211004 12 209 0.0 1.6 0.00 0.58 0.38 93 1015.3
20260503210505 12 237 0.0 3.2 0.00 0.58 0.38 94 1015.1
20260503210005 12 250 0.0 3.2 0.00 0.58 0.38 93 1015.3
20260503205505 12 240 0.0 1.6 0.00 0.58 0.38 93 1015.2
20260503205025 12 237 0.0 1.6 0.00 0.58 0.38 93 1015.3
20260503204505 12 226 0.0 3.2 0.00 0.58 0.38 94 1015.0
20260503204005 12 226 1.6 3.2 0.00 0.58 0.38 95 1015.1
20260503203505 12 228 1.6 3.2 0.00 0.58 0.38 96 1014.9
20260503203004 12 232 0.0 1.6 0.00 0.58 0.38 96 1015.0
20260503202505 12 240 0.0 1.6 0.00 0.58 0.38 96 1015.2
20260503202004 12 251 1.6 4.8 0.00 0.58 0.38 95 1015.0
20260503201505 12 252 1.6 4.8 0.00 0.58 0.38 94 1015.0
20260503201025 12 225 0.0 1.6 0.00 0.58 0.38 91 1015.0
20260503200504 12 226 0.0 1.6 0.00 0.58 0.38 90 1014.5
20260503200025 12 226 0.0 1.6 0.00 0.58 0.38 93 1014.6
20260503195504 12 226 0.0 1.6 0.00 0.58 0.38 92 1014.3
20260503195005 12 234 0.0 1.6 0.00 0.58 0.38 93 1014.3
20260503194504 12 226 0.0 1.6 0.00 0.58 0.38 93 1014.3
20260503194026 12 198 0.0 1.6 0.00 0.58 0.38 93 1014.1
20260503193526 12 199 0.0 1.6 0.00 0.58 0.38 94 1014.1
20260503193005 12 225 0.0 1.6 0.00 0.58 0.38 96 1014.1
20260503192505 12 228 0.0 1.6 0.00 0.58 0.38 96 1014.1
20260503192005 12 227 0.0 3.2 0.00 0.58 0.38 96 1014.1
20260503191504 12 232 0.0 3.2 0.00 0.58 0.38 97 1014.1
20260503191004 12 235 0.0 3.2 0.03 0.58 0.38 96 1014.1
20260503190504 12 235 1.6 3.2 0.03 0.58 0.38 96 1014.3
20260503190005 12 186 0.0 3.2 0.03 0.58 0.38 96 1014.3
20260503185504 12 150 0.0 3.2 0.05 0.58 0.38 96 1014.3
20260503185005 12 199 0.0 3.2 0.05 0.58 0.38 96 1014.2
20260503184504 12 195 0.0 3.2 0.05 0.58 0.38 95 1014.2
20260503184004 12 243 1.6 4.8 0.08 0.58 0.38 94 1014.1
20260503183504 12 237 1.6 4.8 0.08 0.58 0.38 95 1013.9
20260503183004 12 197 0.0 3.2 0.08 0.58 0.38 96 1013.9
20260503182525 12 218 0.0 3.2 0.08 0.58 0.38 96 1014.0
20260503182006 12 184 0.0 3.2 0.08 0.58 0.38 97 1014.1
20260503181505 13 172 0.0 3.2 0.08 0.58 0.38 97 1014.0
20260503181005 13 192 0.0 1.6 0.05 0.56 0.36 96 1014.3
20260503180504 13 177 1.6 3.2 0.05 0.56 0.36 95 1014.2
20260503180005 13 164 0.0 3.2 0.05 0.56 0.36 94 1014.2
20260503175504 13 188 0.0 1.6 0.03 0.53 0.33 93 1014.2
20260503175004 13 149 1.6 4.8 0.03 0.53 0.33 92 1014.2
20260503174504 13 135 1.6 4.8 0.03 0.53 0.33 93 1014.3
20260503174025 13 146 1.6 4.8 0.00 0.51 0.30 92 1014.2
20260503173504 13 181 0.0 3.2 0.00 0.51 0.30 90 1013.9
20260503173005 14 216 0.0 1.6 0.00 0.51 0.30 90 1014.1
20260503172504 14 150 0.0 4.8 0.00 0.51 0.30 89 1014.1
20260503172004 14 158 0.0 4.8 0.00 0.51 0.30 88 1013.8
20260503171504 15 237 0.0 6.4 0.00 0.51 0.30 85 1014.0
20260503171005 14 249 1.6 6.4 0.00 0.51 0.30 85 1013.9
20260503170504 15 241 1.6 4.8 0.00 0.51 0.30 84 1014.0
20260503151004 16 305 6.4 16.1 0.00 0.51 0.30 78 1013.9
20260503150504 17 292 6.4 14.5 0.00 0.51 0.30 78 1013.7
20260503131025 18 261 3.2 9.7 0.00 0.51 0.30 74 1014.6
20260503130504 18 267 1.6 16.1 0.00 0.51 0.30 75 1015.0
20260503110525 17 68 1.6 6.4 0.00 0.53 0.30 78 1016.3